Weather History for Aitkin, MN

Change the Weather History Date:

Sunday, February 23, 2014

  Actual Average Record
Temperature  
Mean Temperature 10 °F -  
Max Temperature 21 °F 29 °F 53 °F (1984)
Min Temperature 0 °F 11 °F -18 °F (1963)
Degree Days  
Heating Degree Days 54    
Moisture  
Dew Point -3 °F    
Average Humidity 59    
Maximum Humidity 72    
Minimum Humidity 39    
Precipitation  
Precipitation 0.00 in - - ()
Sea Level Pressure  
Sea Level Pressure 30.09 in    
Wind  
Wind Speed 7 mph (West)    
Max Wind Speed 15 mph    
Max Gust Speed 23 mph    
Visibility 10 miles    
Events      
Averages and records for this station are not official NWS values.
T = Trace of Precipitation, MM = Missing Value Source: NWS Daily Summary

Daily Weather History Graph

Daily Weather History Graph

Search for Another Location

Airport:

Trip Planner

Search our weather history database for the weather conditions in past years. The results will help you decide how hot, cold, wet, or windy it might be!

Date:

Astronomy

Feb. 23, 2014 Rise Set
Actual Time 7:04 AM CST 5:51 PM CST
Civil Twilight 6:34 AM CST 6:22 PM CST
Nautical Twilight 5:59 AM CST 6:57 PM CST
Astronomical Twilight 5:24 AM CST 7:32 PM CST
Moon 2:14 AM CST (2/23) 11:44 AM CST (2/23)
Length of Visible Light 11h 48m
Length of Day
10h 47m
Last Quarter, 38% of the Moon is Illuminated
Feb 23
Last Quarter
Mar 1
New
Mar 8
First Quarter
Mar 16
Full
Mar 23
Last Quarter

Hourly Weather History & Observations

Time (CST) Temp. Windchill Dew Point Humidity Pressure Visibility Wind Dir Wind Speed Gust Speed Precip Events Conditions
12:13 AM 3.2 °F -9.1 °F -4.0 °F 72% 30.00 in 10.0 mi West 6.9 mph - N/A   Clear
12:33 AM 3.2 °F -7.8 °F -4.0 °F 72% 30.00 in 10.0 mi WSW 5.8 mph - N/A   Clear
12:52 AM 3.2 °F -6.2 °F -5.8 °F 66% 30.01 in 10.0 mi WSW 4.6 mph - N/A   Clear
1:13 AM 3.2 °F -6.2 °F -5.8 °F 66% 30.02 in 10.0 mi West 4.6 mph - N/A   Clear
1:33 AM 3.2 °F -10.3 °F -5.8 °F 66% 30.02 in 10.0 mi WSW 8.1 mph - N/A   Clear
1:52 AM 3.2 °F -9.1 °F -5.8 °F 66% 30.03 in 10.0 mi WSW 6.9 mph - N/A   Clear
2:13 AM 3.2 °F -9.1 °F -5.8 °F 66% 30.03 in 10.0 mi WSW 6.9 mph - N/A   Clear
2:33 AM 3.2 °F -9.1 °F -5.8 °F 66% 30.03 in 10.0 mi West 6.9 mph - N/A   Clear
2:53 AM 3.2 °F -10.3 °F -5.8 °F 66% 30.03 in 10.0 mi WSW 8.1 mph - N/A   Clear
3:13 AM 3.2 °F -6.2 °F -5.8 °F 66% 30.03 in 10.0 mi WSW 4.6 mph - N/A   Clear
3:32 AM 3.2 °F -6.2 °F -5.8 °F 66% 30.03 in 10.0 mi West 4.6 mph - N/A   Clear
3:53 AM 3.2 °F -9.1 °F -5.8 °F 66% 30.03 in 10.0 mi West 6.9 mph - N/A   Clear
4:12 AM 1.4 °F -9.9 °F -5.8 °F 72% 30.04 in 10.0 mi WSW 5.8 mph - N/A   Clear
4:33 AM 1.4 °F -9.9 °F -5.8 °F 72% 30.05 in 10.0 mi WSW 5.8 mph - N/A   Clear
4:53 AM 1.4 °F -8.3 °F -5.8 °F 72% 30.05 in 10.0 mi West 4.6 mph - N/A   Clear
5:12 AM 1.4 °F -9.9 °F -5.8 °F 72% 30.05 in 10.0 mi WSW 5.8 mph - N/A   Clear
5:33 AM 1.4 °F -9.9 °F -5.8 °F 72% 30.06 in 10.0 mi WSW 5.8 mph - N/A   Clear
5:53 AM 1.4 °F -8.3 °F -7.6 °F 66% - 10.0 mi WSW 4.6 mph - N/A   Clear
6:12 AM 1.4 °F -9.9 °F -5.8 °F 72% 30.06 in 10.0 mi WSW 5.8 mph - N/A   Clear
6:33 AM -0.4 °F -14.7 °F -7.6 °F 72% 30.07 in 10.0 mi WSW 8.1 mph - N/A   Clear
6:53 AM -0.4 °F -13.4 °F -7.6 °F 72% 30.06 in 10.0 mi WSW 6.9 mph - N/A   Clear
7:13 AM -0.4 °F -10.4 °F -7.6 °F 72% 30.07 in 10.0 mi WSW 4.6 mph - N/A   Clear
7:33 AM 1.4 °F -9.9 °F -7.6 °F 66% 30.07 in 10.0 mi West 5.8 mph - N/A   Clear
7:53 AM 1.4 °F -11.3 °F -5.8 °F 72% 30.08 in 10.0 mi West 6.9 mph - N/A   Clear
8:13 AM 3.2 °F -7.8 °F -5.8 °F 66% 30.08 in 10.0 mi West 5.8 mph - N/A   Clear
8:33 AM 5.0 °F -8.1 °F -5.8 °F 61% 30.08 in 10.0 mi West 8.1 mph - N/A   Clear
8:53 AM 6.8 °F -8.6 °F -5.8 °F 56% 30.08 in 10.0 mi West 11.5 mph 16.1 mph N/A   Clear
9:12 AM 6.8 °F -7.8 °F -4.0 °F 61% 30.08 in 10.0 mi West 10.4 mph 18.4 mph N/A   Clear
9:33 AM 8.6 °F -4.7 °F -2.2 °F 62% 30.09 in 10.0 mi West 9.2 mph 17.3 mph N/A   Clear
9:53 AM 10.4 °F -3.3 °F -2.2 °F 57% 30.09 in 10.0 mi West 10.4 mph 16.1 mph N/A   Clear
10:13 AM 12.2 °F -0.2 °F -2.2 °F 53% 30.08 in 10.0 mi West 9.2 mph - N/A   Clear
10:33 AM 12.2 °F -0.2 °F -2.2 °F 53% 30.08 in 10.0 mi WNW 9.2 mph 20.7 mph N/A   Clear
10:53 AM 14.0 °F 1.2 °F -0.4 °F 53% 30.08 in 10.0 mi West 10.4 mph 18.4 mph N/A   Clear
11:13 AM 15.8 °F 2.1 °F -0.4 °F 49% 30.08 in 10.0 mi West 12.7 mph 23.0 mph N/A   Clear
11:33 AM 15.8 °F 0.9 °F -0.4 °F 49% 30.09 in 10.0 mi West 15.0 mph 20.7 mph N/A   Clear
11:53 AM 15.8 °F 6.1 °F -0.4 °F 49% 30.09 in 10.0 mi West 6.9 mph 21.9 mph N/A   Clear
12:13 PM 17.6 °F 3.7 °F -0.4 °F 45% 30.08 in 10.0 mi WSW 13.8 mph 20.7 mph N/A   Clear
12:33 PM 17.6 °F 7.3 °F -0.4 °F 45% 30.08 in 10.0 mi West 8.1 mph 20.7 mph N/A   Clear
12:53 PM 19.4 °F 6.0 °F 1.4 °F 46% 30.08 in 10.0 mi West 13.8 mph 21.9 mph N/A   Scattered Clouds
1:12 PM 19.4 °F 6.6 °F 1.4 °F 46% 30.07 in 10.0 mi West 12.7 mph 18.4 mph N/A   Clear
1:33 PM 19.4 °F 7.9 °F 1.4 °F 46% 30.07 in 10.0 mi West 10.4 mph 20.7 mph N/A   Clear
1:53 PM 19.4 °F 7.9 °F 1.4 °F 46% 30.07 in 10.0 mi West 10.4 mph 19.6 mph N/A   Clear
2:12 PM 19.4 °F 6.6 °F -0.4 °F 42% 30.08 in 10.0 mi West 12.7 mph 23.0 mph N/A   Clear
2:33 PM 21.2 °F 10.9 °F 1.4 °F 42% 30.08 in 10.0 mi West 9.2 mph 20.7 mph N/A   Clear
2:53 PM 21.2 °F 11.7 °F -0.4 °F 39% 30.08 in 10.0 mi West 8.1 mph 19.6 mph N/A   Clear
3:13 PM 21.2 °F 12.6 °F -0.4 °F 39% 30.08 in 10.0 mi West 6.9 mph - N/A   Clear
3:33 PM 19.4 °F 10.4 °F -0.4 °F 42% 30.08 in 10.0 mi West 6.9 mph 19.6 mph N/A   Clear
3:52 PM 19.4 °F 9.5 °F -0.4 °F 42% 30.08 in 10.0 mi West 8.1 mph 18.4 mph N/A   Clear
4:13 PM 19.4 °F 8.6 °F -0.4 °F 42% 30.09 in 10.0 mi West 9.2 mph 18.4 mph N/A   Clear
4:33 PM 19.4 °F 6.6 °F -0.4 °F 42% 30.09 in 10.0 mi West 12.7 mph 19.6 mph N/A   Clear
4:52 PM 19.4 °F 8.6 °F -0.4 °F 42% 30.09 in 10.0 mi West 9.2 mph 16.1 mph N/A   Clear
5:13 PM 17.6 °F 5.7 °F -0.4 °F 45% 30.10 in 10.0 mi West 10.4 mph 17.3 mph N/A   Clear
5:33 PM 17.6 °F 7.3 °F -0.4 °F 45% 30.10 in 10.0 mi West 8.1 mph - N/A   Clear
5:52 PM 15.8 °F 4.2 °F -0.4 °F 49% 30.11 in 10.0 mi West 9.2 mph 20.7 mph N/A   Clear
6:13 PM 14.0 °F 2.0 °F -0.4 °F 53% 30.12 in 10.0 mi West 9.2 mph - N/A   Clear
6:33 PM 12.2 °F 2.9 °F -0.4 °F 57% 30.13 in 10.0 mi West 5.8 mph - N/A   Clear
6:52 PM 12.2 °F 2.9 °F -0.4 °F 57% 30.13 in 10.0 mi West 5.8 mph - N/A   Clear
7:13 PM 10.4 °F -2.4 °F -0.4 °F 62% 30.14 in 10.0 mi WSW 9.2 mph - N/A   Clear
7:33 PM 10.4 °F 0.8 °F -2.2 °F 57% 30.14 in 10.0 mi West 5.8 mph - N/A   Clear
7:52 PM 10.4 °F -0.4 °F -0.4 °F 62% 30.14 in 10.0 mi West 6.9 mph - N/A   Clear
8:13 PM 10.4 °F 0.8 °F -2.2 °F 57% 30.14 in 10.0 mi West 5.8 mph - N/A   Clear
8:33 PM 8.6 °F -4.7 °F -2.2 °F 62% 30.14 in 10.0 mi West 9.2 mph - N/A   Clear
8:52 PM 8.6 °F -3.7 °F -2.2 °F 62% 30.15 in 10.0 mi West 8.1 mph - N/A   Clear
9:13 PM 8.6 °F -1.3 °F -0.4 °F 67% 30.15 in 10.0 mi West 5.8 mph 16.1 mph N/A   Clear
9:33 PM 8.6 °F -4.7 °F -0.4 °F 67% 30.15 in 10.0 mi West 9.2 mph 17.3 mph N/A   Clear
9:52 PM 6.8 °F -0.1 °F -2.2 °F 67% 30.15 in 10.0 mi West 3.5 mph - N/A   Clear
10:13 PM 6.8 °F -3.5 °F -0.4 °F 72% 30.16 in 10.0 mi West 5.8 mph - N/A   Clear
10:33 PM 6.8 °F -4.8 °F -2.2 °F 67% 30.16 in 10.0 mi West 6.9 mph - N/A   Clear
10:52 PM 6.8 °F -3.5 °F -2.2 °F 67% 30.16 in 10.0 mi West 5.8 mph - N/A   Clear
11:13 PM 5.0 °F -5.6 °F -2.2 °F 72% 30.16 in 10.0 mi West 5.8 mph - N/A   Clear
11:33 PM 5.0 °F -4.1 °F -2.2 °F 72% 30.16 in 10.0 mi West 4.6 mph - N/A   Clear
11:52 PM 5.0 °F -4.1 °F -2.2 °F 72% 30.16 in 10.0 mi West 4.6 mph - N/A   Clear